Location: Newark
(40.9833°N, 0.0333°W)
Time: 01:40:23
(UTC+00:00)

Altair - Pass Details

Date: 03 November 2020
Orbit: 1502 x 1682 km, 47.2° (Epoch: 02 December)

Event Time Altitude Azimuth Distance (km) Brightness Sun altitude
Rises 01:17:56 0° 191° (S) 4,622 - -57.1°
Reaches altitude 10° 01:21:40 10° 178° (S) 3,641 - -56.6°
Maximum altitude 01:28:32 24° 128° (SE) 2,701 - -55.6°
Exits shadow 01:33:05 17° 91° (E) 3,171 9.3 -55.0°
Drops below altitude 10° 01:35:29 10° 79° (E) 3,693 9.8 -54.6°
Sets 01:39:15 0° 67° (ENE) 4,702 10.6 -54.0°
